sat.trackr.live / text

‹ back to catalog

STARLINK-30439

NORAD 57867 · 2023-144D

PAYLOAD ACTIVE UNKNOWN

§ Identity

Operator
Country
US
Launch date
2023-09-16
Launch site
AFETR
Launch vehicle
Mass (kg)
RCS (m²)

Purposes: comms

External: N2YO · Heavens-Above · Gunter

§ Orbital elements

Epoch: 2026-05-25T05:29:21.230880Z

Period
94.27 min
Inclination
43.0004°
Eccentricity
0.0001294
Mean motion
15.27590483 rev/d
Perigee alt
482.1 km
Apogee alt
483.9 km
Semi-major
6,861.2 km
B*
7.3842e-4
RAAN
212.9042°
Arg perigee
271.5626°
Mean anomaly
88.5078°
Rev number
14,935

§ Raw data

STARLINK-304391 57867U 23144D   26145.22871795  .00020119  00000+0  73842-3 0  99952 57867  43.0004 212.9042 0001294 271.5626  88.5078 15.27590483149353

JSON: /api/v1/satellites/57867 · /tle

For live sub-satellite position, see the globe view (requires WebGL).

§ Visibility from observer

Set your observer location to see the next 7 days of passes ≥ 10°. The values pass through the URL so the page stays shareable.

No JS? Fill the form by hand. The geolocation button needs JavaScript.